Weather History for Hollywood, FL

Change the Weather History Date:

Friday, April 5, 2013

  Actual Average (KFLL) Record (KFLL)
Temperature  
Mean Temperature 68 °F 75 °F  
Max Temperature 73 °F 82 °F 92 °F (2011)
Min Temperature 64 °F 68 °F 43 °F (1915)
Degree Days  
Heating Degree Days 0 0  
Month to date heating degree days 0  
Since 1 July heating degree days 111  
Cooling Degree Days 4 10  
Month to date cooling degree days 50  
Year to date cooling degree days 660  
Growing Degree Days 18 (Base 50)    
Moisture  
Dew Point 66 °F    
Average Humidity 90    
Maximum Humidity 97    
Minimum Humidity 78    
Precipitation  
Precipitation 0.90 in 0.12 in 2.00 in (1950)
Month to date precipitation 0.60  
Year to date precipitation 10.55  
Snow  
Snow 0.00 in - - ()
Month to date snowfall  
Since 1 July snowfall  
Snow Depth -    
Sea Level Pressure  
Sea Level Pressure 29.95 in    
Wind  
Wind Speed 6 mph (WSW)    
Max Wind Speed 21 mph    
Max Gust Speed 32 mph    
Visibility 10 miles    
Events Rain , Thunderstorm    
T = Trace of Precipitation, MM = Missing Value Source: NWS Daily Summary

Daily Weather History Graph

Daily Weather History Graph

Search for Another Location

Airport:

Trip Planner

Search our weather history database for the weather conditions in past years. The results will help you decide how hot, cold, wet, or windy it might be!

Date:

Astronomy

Apr. 05, 2013 Rise Set
Actual Time 7:07 AM EDT 7:39 PM EDT
Civil Twilight 6:44 AM EDT 8:03 PM EDT
Nautical Twilight 6:17 AM EDT 8:30 PM EDT
Astronomical Twilight 5:49 AM EDT 8:58 PM EDT
Moon 3:46 AM EDT (4/5) 3:26 PM EDT (4/5)
Length of Visible Light 13h 18m
Length of Day
12h 32m
Waning Crescent, 24% of the Moon is Illuminated
Apr 5
Waning Crescent
Apr 10
New
Apr 18
First Quarter
Apr 25
Full
May 2
Last Quarter

Hourly Weather History & Observations

Time (EDT) Temp. Dew Point Humidity Pressure Visibility Wind Dir Wind Speed Gust Speed Precip Events Conditions
12:29 AM 73.4 °F 71.6 °F 94% 30.00 in 10.0 mi Calm Calm - 0.00 in   Overcast
12:53 AM 73.0 °F 71.1 °F 93% 30.00 in 10.0 mi NW 6.9 mph - 0.00 in   Overcast
1:25 AM 73.4 °F 71.6 °F 94% 29.98 in 10.0 mi Calm Calm - N/A   Overcast
1:40 AM 71.6 °F 69.8 °F 94% 29.97 in 10.0 mi NW 6.9 mph - N/A Thunderstorm Overcast
1:53 AM 72.0 °F 69.1 °F 91% 29.97 in 10.0 mi WNW 18.4 mph 23.0 mph N/A Thunderstorm Overcast
2:18 AM 69.8 °F 66.2 °F 88% 29.97 in 10.0 mi WNW 19.6 mph 25.3 mph 0.08 in Rain Rain
2:27 AM 66.2 °F 64.4 °F 94% 29.95 in 10.0 mi NNW 20.7 mph 32.2 mph 0.12 in Rain , Thunderstorm Heavy Rain
2:53 AM 66.9 °F 64.9 °F 93% 30.02 in 10.0 mi SSE 10.4 mph - 0.12 in Thunderstorm Thunderstorm
3:42 AM 66.2 °F 64.4 °F 94% 29.98 in 10.0 mi Calm Calm - 0.09 in Rain Light Rain
3:53 AM 66.9 °F 64.9 °F 93% 29.99 in 10.0 mi Calm Calm - 0.10 in Rain Light Rain
4:53 AM 66.9 °F 64.0 °F 90% 30.00 in 10.0 mi WNW 4.6 mph - 0.15 in Rain Rain
5:53 AM 66.9 °F 64.0 °F 90% 29.98 in 10.0 mi SSE 8.1 mph - 0.05 in Rain Light Rain
6:53 AM 66.9 °F 64.9 °F 93% 29.97 in 10.0 mi Calm Calm - 0.02 in Rain Light Rain
7:53 AM 66.9 °F 64.9 °F 93% 29.94 in 10.0 mi SSE 8.1 mph - 0.00 in Rain Light Rain
8:53 AM 69.1 °F 64.9 °F 87% 29.92 in 10.0 mi SSE 10.4 mph - 0.00 in   Clear
9:53 AM 72.0 °F 66.0 °F 81% 29.96 in 10.0 mi South 8.1 mph - N/A   Clear
10:53 AM 73.0 °F 66.9 °F 81% 29.97 in 10.0 mi NW 10.4 mph - 0.00 in   Scattered Clouds
11:53 AM 72.0 °F 66.0 °F 81% 29.98 in 10.0 mi WNW 5.8 mph - 0.00 in Rain Light Rain
12:53 PM 72.0 °F 64.9 °F 78% 29.94 in 10.0 mi SW 5.8 mph - 0.02 in Rain Light Rain
1:53 PM 72.0 °F 66.0 °F 81% 29.92 in 10.0 mi SSW 9.2 mph - 0.00 in   Overcast
2:53 PM 71.1 °F 64.9 °F 81% 29.92 in 10.0 mi West 10.4 mph - 0.00 in   Overcast
3:53 PM 66.9 °F 63.0 °F 87% 29.91 in 3.0 mi WSW 8.1 mph 19.6 mph 0.21 in Rain Rain
4:53 PM 66.9 °F 64.0 °F 90% 29.89 in 10.0 mi South 10.4 mph - 0.06 in Rain Light Rain
5:53 PM 66.0 °F 64.0 °F 93% 29.87 in 10.0 mi West 5.8 mph - 0.16 in Rain Rain
6:53 PM 66.0 °F 64.9 °F 96% 29.86 in 10.0 mi WSW 3.5 mph - 0.01 in   Clear
7:53 PM 66.9 °F 64.0 °F 90% 29.88 in 10.0 mi WSW 5.8 mph - N/A   Clear
8:53 PM 66.0 °F 64.0 °F 93% 29.90 in 10.0 mi WSW 3.5 mph - N/A   Clear
9:53 PM 64.9 °F 64.0 °F 97% 29.93 in 10.0 mi SW 3.5 mph - N/A   Partly Cloudy
10:03 PM 66.2 °F 64.4 °F 94% 29.93 in 10.0 mi SSW 3.5 mph - N/A   Mostly Cloudy
10:53 PM 66.9 °F 66.0 °F 97% 29.95 in 10.0 mi WSW 4.6 mph - N/A   Overcast
11:53 PM 66.9 °F 63.0 °F 87% 29.96 in 10.0 mi West 10.4 mph - N/A   Overcast